Location: Bouillancy
(49.1149°N, 2.9308°E)
Time: 08:33:41
(UTC+00:00)

COSMOS 2455 - Pass Details

Date: 30 September 2020
Orbit: 898 x 911 km, 67.1° (Epoch: 30 October)

Event Time Altitude Azimuth Distance (km) Brightness Sun altitude
Rises 17:55:51 0° 159° (SSE) 3,519 5.7 -5.3°
Reaches altitude 10° 17:59:20 10° 139° (SE) 2,586 4.8 -5.9°
Maximum altitude 18:02:49 16° 103° (ESE) 2,188 4.2 -6.5°
Drops below altitude 10° 18:06:18 10° 67° (ENE) 2,601 4.7 -7.0°
Sets 18:09:48 0° 47° (NE) 3,550 5.5 -7.6°
